FW7079 Weather Reports


Display with metric or nautical units.
time (UTC)temp
F
wind
direction
speed
MPH
gust
MPH
rain 1hr
in
rain 24hr
in
rain mn
in
humidity
%
barometer
mb
20260901111600 69 0 0.0 0.0 0.00 0.00 0.00 79 1017.2
20260901104602 68 34 0.0 0.0 0.00 0.00 0.00 82 1017.0
20260901103100 68 0 0.0 0.0 0.00 0.00 0.00 80 1017.0
20260901101606 68 0 0.0 0.0 0.00 0.00 0.00 80 1016.9
20260901100104 68 0 0.0 1.0 0.00 0.00 0.00 80 1016.8
20260901094605 68 0 0.0 0.0 0.00 0.00 0.00 79 1016.7
20260901093102 69 0 0.0 0.0 0.00 0.00 0.00 78 1016.7
20260901091600 69 0 0.0 0.0 0.00 0.00 0.00 77 1016.7
20260901090105 69 0 0.0 0.0 0.00 0.00 0.00 78 1016.6
20260901084557 69 0 0.0 0.0 0.00 0.00 0.00 77 1016.5
20260901083109 70 0 0.0 0.0 0.00 0.00 0.00 76 1016.4
20260901081611 71 0 0.0 0.0 0.00 0.00 0.00 76 1016.3
20260901080118 71 0 0.0 0.0 0.00 0.00 0.00 73 1016.3
20260901074601 71 0 0.0 0.0 0.00 0.00 0.00 74 1016.3
20260901073100 72 0 0.0 1.0 0.00 0.00 0.00 73 1016.2
20260901071557 72 0 0.0 0.0 0.00 0.00 0.00 72 1016.1
20260901070107 72 0 0.0 0.0 0.00 0.00 0.00 72 1016.2
20260901064602 72 0 0.0 1.0 0.00 0.00 0.00 72 1016.3
20260901063108 73 0 0.0 0.0 0.00 0.00 0.00 71 1016.3
20260901061604 73 0 0.0 0.0 0.00 0.00 0.00 70 1016.4
20260901054559 74 0 0.0 0.0 0.00 0.00 0.00 68 1016.4
20260901053119 74 0 0.0 1.0 0.00 0.00 0.00 66 1016.3
20260901051610 75 0 0.0 0.0 0.00 0.00 0.00 65 1016.2
20260901050100 76 0 0.0 0.0 0.00 0.00 0.00 62 1016.1
20260901044610 77 0 0.0 0.0 0.00 0.00 0.00 61 1016.0
20260901043102 78 0 0.0 0.0 0.00 0.00 0.00 60 1016.1
20260901041603 79 0 0.0 1.0 0.00 0.00 0.00 60 1015.9
20260901040114 79 0 0.0 0.0 0.00 0.00 0.00 61 1015.9
20260901034612 79 0 0.0 0.0 0.00 0.00 0.00 55 1015.9
20260901033101 80 0 0.0 1.0 0.00 0.00 0.00 59 1015.9
20260901031601 80 0 0.0 0.0 0.00 0.00 0.00 54 1015.8
20260901030103 80 0 0.0 1.0 0.00 0.00 0.00 54 1015.6
20260901024600 80 0 0.0 1.0 0.00 0.00 0.00 54 1015.4
20260901023109 82 0 0.0 0.0 0.00 0.00 0.00 55 1015.3
20260901021605 83 0 0.0 0.0 0.00 0.00 0.00 50 1015.1
20260901020104 84 0 0.0 0.0 0.00 0.00 0.00 49 1014.8
20260901014606 86 0 0.0 0.0 0.00 0.00 0.00 45 1014.7
20260901013105 88 0 0.0 0.0 0.00 0.00 0.00 42 1014.7
20260901011606 91 0 0.0 1.0 0.00 0.00 0.00 40 1014.4
20260901010109 92 0 0.0 2.0 0.00 0.00 0.00 38 1014.2
20260901004607 94 0 0.0 3.0 0.00 0.00 0.00 37 1014.2
20260901003103 95 122 1.0 5.0 0.00 0.00 0.00 36 1014.1
20260901001601 96 132 1.0 7.0 0.00 0.00 0.00 35 1014.1
20260901000059 96 132 2.0 6.0 0.00 0.00 0.00 34 1014.2
20260831234604 97 136 1.0 7.0 0.00 0.00 0.00 34 1014.2
20260831233101 98 115 2.0 8.0 0.00 0.00 0.00 33 1014.0
20260831231558 98 136 2.0 7.0 0.00 0.00 0.00 33 1014.1
20260831230115 98 95 2.0 9.0 0.00 0.00 0.00 33 1014.1
20260831224600 99 142 3.0 9.0 0.00 0.00 0.00 33 1014.0
20260831223058 99 0.0 0.0 0.00 0.00 0.00 34 1014.1
20260831221605 100 66 3.0 8.0 0.00 0.00 0.00 33 1014.0
20260831220133 100 34 2.0 9.0 0.00 0.00 0.00 33 1014.2
20260831214601 100 169 3.0 10.0 0.00 0.00 0.00 33 1014.3
20260831213125 101 148 2.0 9.0 0.00 0.00 0.00 32 1014.4
20260831211614 102 135 2.0 11.0 0.00 0.00 0.00 31 1014.4
20260831210110 102 235 3.0 12.0 0.00 0.00 0.00 32 1014.6
20260831204606 102 0.0 0.0 0.00 0.00 0.00 31 1014.8
20260831203122 103 119 2.0 8.0 0.00 0.00 0.00 32 1014.9
20260831201610 103 0.0 0.0 0.00 0.00 0.00 31 1015.1
20260831200058 103 0.0 0.0 0.00 0.00 0.00 33 1015.1
20260831194604 103 0.0 0.0 0.00 0.00 0.00 32 1015.3
20260831193102 103 0.0 0.0 0.00 0.00 0.00 32 1015.4
20260831191605 102 0.0 0.0 0.00 0.00 0.00 33 1015.6
20260831190112 103 0.0 0.0 0.00 0.00 0.00 32 1015.7
20260831184606 103 217 1.0 5.0 0.00 0.00 0.00 31 1015.9
20260831183059 103 0.0 0.0 0.00 0.00 0.00 32 1016.0
20260831181600 100 0.0 0.0 0.00 0.00 0.00 37 1016.1
20260831180100 99 0.0 0.0 0.00 0.00 0.00 38 1016.3
20260831174602 99 0.0 0.0 0.00 0.00 0.00 37 1016.5
20260831173107 100 236 2.0 9.0 0.00 0.00 0.00 38 1016.7
20260831171559 99 98 1.0 0.0 0.00 0.00 0.00 39 1016.8
20260831170104 98 148 3.0 8.0 0.00 0.00 0.00 41 1017.1
20260831164630 97 106 3.0 6.0 0.00 0.00 0.00 42 1017.2
20260831163102 97 0.0 0.0 0.00 0.00 0.00 44 1017.1
20260831161609 96 0.0 0.0 0.00 0.00 0.00 45 1017.2
20260831160104 95 127 3.0 8.0 0.00 0.00 0.00 46 1017.2
20260831154625 94 148 2.0 8.0 0.00 0.00 0.00 47 1017.2
20260831153102 93 160 3.0 9.0 0.00 0.00 0.00 49 1017.3
20260831151609 91 134 3.0 8.0 0.00 0.00 0.00 51 1017.3
20260831150104 90 125 3.0 7.0 0.00 0.00 0.00 52 1017.4
20260831144609 89 126 3.0 7.0 0.00 0.00 0.00 55 1017.4
20260831143114 86 132 2.0 6.0 0.00 0.00 0.00 58 1017.4
20260831141618 83 136 1.0 4.0 0.00 0.00 0.00 61 1017.5
20260831140059 81 132 0.0 2.0 0.00 0.00 0.00 63 1017.5
20260831134604 79 131 0.0 1.0 0.00 0.00 0.00 67 1017.5
20260831133059 76 0 0.0 0.0 0.00 0.00 0.00 71 1017.4
20260831131602 74 0 0.0 0.0 0.00 0.00 0.00 75 1017.2
20260831130107 72 0 0.0 0.0 0.00 0.00 0.00 77 1017.1
20260831124600 71 0 0.0 0.0 0.00 0.00 0.00 77 1017.0
20260831123100 71 0 0.0 0.0 0.00 0.00 0.00 77 1016.6
20260831121605 71 0 0.0 0.0 0.00 0.00 0.00 76 1016.4
20260831120111 71 0 0.0 0.0 0.00 0.00 0.00 77 1016.3
20260831114600 72 0 0.0 0.0 0.00 0.00 0.00 75 1016.1
20260831113108 72 0 0.0 0.0 0.00 0.00 0.00 75 1015.9